Wind_Speed
12 13 14 15 15 15 16 15 14 14 14 15 16 16 16 16 17 17 17 18 18 19 18 18 18 17 18 17 17 18 19 20 21 21 21 21 22 23 24 25 25 26 26 27
12 13 14 14 14 14 14 14 13 14 13 14 14 15 15 15 16 16 16 16 17 18 18 18 19 19 18 18 18 19 20 20 21 21 22 23 24 25 25 26 27 27 27 28
12 14 14 13 13 13 13 13 13 14 14 14 13 13 14 15 15 15 15 16 17 18 18 19 19 18 18 19 20 20 20 20 21 23 24 24 24 25 26 26 27 27 27 27
12 13 13 12 12 12 12 13 13 13 13 13 12 12 15 16 16 15 15 16 16 16 17 17 18 19 19 20 21 21 21 21 22 23 23 24 24 25 26 26 27 28 28 28
11 11 11 11 12 12 13 13 12 12 12 12 13 12 14 16 15 14 15 16 16 16 17 17 18 19 19 20 21 21 21 22 23 23 24 25 25 25 26 26 27 28 28 28
10 11 12 12 12 13 12 12 12 12 11 11 12 12 12 13 13 14 14 15 16 16 17 17 17 19 20 20 20 21 22 22 23 24 25 25 26 27 27 28 29 29 29 29
10 11 12 13 13 13 13 11 10 10 11 12 12 12 13 13 13 14 14 15 15 15 16 17 17 18 19 20 21 22 22 23 24 25 26 27 27 28 29 30 30 30 30 30
9 10 12 13 14 13 13 12 12 11 11 12 13 13 13 13 13 13 14 14 15 16 16 17 18 18 19 21 22 22 23 24 25 26 27 28 28 29 30 31 30 31 31 31
9 11 12 12 13 14 14 13 13 13 13 12 13 14 13 13 13 14 14 14 14 16 16 17 18 19 20 21 23 23 24 25 26 26 26 27 27 28 29 29 30 30 31 31
9 10 10 11 12 14 14 14 13 13 13 13 13 14 14 14 14 15 15 15 16 17 17 17 18 20 21 22 24 25 26 26 27 26 26 25 26 27 27 27 28 28 29 29
9 9 10 11 12 13 13 14 14 14 14 13 13 15 15 15 14 15 16 16 16 16 17 18 19 20 22 23 24 25 25 26 26 25 25 25 25 25 26 26 27 27 27 27
9 9 10 12 12 13 13 13 13 13 14 14 14 16 16 15 15 15 16 16 16 16 17 18 19 20 21 23 24 24 25 26 25 24 25 24 24 25 26 26 27 27 26 26
10 10 10 11 12 12 13 13 14 14 15 15 14 16 16 16 15 16 16 15 16 16 17 18 19 21 22 23 24 24 24 24 24 24 24 24 24 25 25 26 26 26 25 25
11 11 11 12 12 12 13 13 13 14 15 15 15 16 16 16 15 16 16 15 16 17 18 19 20 21 23 23 23 23 23 23 23 23 23 23 23 24 24 24 24 24 24 24
12 12 12 12 11 11 12 12 13 14 15 16 16 16 15 15 15 16 16 16 17 18 19 20 20 21 21 21 21 21 21 21 22 22 22 22 22 22 22 22 22 22 22 23
11 12 12 11 11 11 11 11 12 12 13 13 15 15 14 14 15 15 15 16 17 17 18 19 19 19 20 20 20 21 20 20 20 21 21 20 21 20 20 20 20 20 20 21
9 9 10 10 10 10 10 10 10 10 10 11 12 13 14 14 15 15 15 16 17 16 17 17 17 18 18 19 19 19 18 18 18 18 18 18 18 17 17 17 17 17 17 17
8 8 8 9 9 10 10 10 9 10 10 10 10 11 12 13 13 14 15 15 14 14 15 15 16 16 16 17 17 16 15 15 15 16 16 16 16 16 16 16 16 16 16 15
6 7 7 7 8 9 10 9 9 9 10 10 10 10 11 12 12 13 13 13 13 13 13 14 15 15 15 15 15 14 13 14 14 14 15 14 14 14 14 15 14 13 13 13
5 5 6 6 7 8 8 7 7 8 8 8 9 10 11 11 11 11 11 12 11 12 12 13 14 13 13 13 13 13 12 13 13 14 14 14 13 13 13 13 13 12 11 11
4 5 6 6 7 7 7 7 7 8 7 7 8 9 10 10 10 10 10 10 11 11 12 12 12 12 12 12 12 11 11 11 12 13 13 12 11 11 11 12 11 10 9 8
4 5 5 5 6 6 6 6 6 6 7 7 8 8 9 9 9 9 9 9 10 10 11 11 11 10 11 11 10 10 10 11 11 11 11 11 10 10 11 10 10 9 8 7
4 4 4 4 5 5 5 6 6 6 6 7 7 7 8 8 8 7 7 8 8 9 9 9 9 9 10 10 10 10 10 11 11 11 10 10 9 9 10 9 9 8 8 7
3 4 4 4 5 5 5 5 5 6 6 6 6 6 7 7 6 5 6 6 7 8 8 8 8 8 9 9 9 10 10 10 9 10 10 9 9 9 9 9 8 8 8 7
3 3 3 4 5 5 4 5 6 6 6 6 6 6 7 6 5 5 5 7 7 7 7 7 7 8 9 9 9 8 8 8 9 9 9 9 9 9 9 8 9 9 9 8
3 3 3 3 4 4 4 4 5 5 5 5 6 6 6 6 5 4 5 6 6 6 6 6 7 7 8 8 8 8 8 9 8 8 8 8 8 8 9 9 9 9 10 10
Wind_Direction
205 204 206 206 206 211 212 213 222 231 236 238 243 248 251 255 258 260 264 268 272 274 274 274 276 276 275 277 279 279 275 273 274 272 270 270 270 271 272 272 273 272 271 271
198 201 204 206 210 214 218 218 222 232 236 240 243 248 251 255 257 260 262 267 272 275 276 274 274 274 275 280 283 282 279 280 275 272 273 271 270 271 272 273 273 273 273 271
199 206 206 209 212 214 215 216 225 235 241 243 249 254 255 258 258 259 261 268 274 276 275 275 274 275 281 285 288 287 283 284 280 276 273 272 272 273 273 273 273 273 273 271
204 206 206 208 211 210 218 224 230 240 243 251 253 256 263 259 258 258 262 268 275 278 277 277 277 278 282 283 286 286 284 284 282 280 278 276 275 275 274 274 274 275 275 274
205 205 205 208 213 213 221 230 234 239 244 250 256 251 258 259 258 260 264 270 274 278 280 280 279 279 281 284 285 285 285 285 284 283 281 279 277 276 275 275 276 277 277 276
209 211 212 214 217 222 228 233 238 244 248 254 254 253 255 260 261 264 268 272 276 280 282 279 280 279 280 284 286 287 287 287 285 284 283 280 279 277 277 278 278 279 278 277
220 218 219 221 223 227 230 232 242 249 249 255 257 257 256 260 263 266 268 273 277 278 282 279 278 280 283 286 288 288 290 288 286 284 283 281 279 279 278 278 279 279 279 279
226 229 229 227 227 232 233 230 234 243 251 259 265 263 261 262 264 266 269 274 276 276 281 281 279 283 286 288 290 290 290 289 287 285 284 282 281 280 279 279 280 281 281 281
219 232 236 236 231 232 233 233 237 246 253 256 260 266 264 265 268 268 269 274 276 280 284 285 284 286 289 291 292 292 291 289 288 287 286 283 282 282 282 283 283 283 283 282
231 236 237 233 234 237 237 237 242 243 251 255 264 270 270 273 269 270 272 274 278 282 284 285 286 287 289 292 293 293 292 291 290 289 286 284 284 286 287 287 287 286 284 282
237 238 240 239 240 245 246 246 248 249 249 257 263 267 271 272 270 271 274 276 278 282 284 286 289 290 291 293 294 294 292 292 291 289 288 286 286 288 289 289 290 288 285 284
234 239 245 248 248 247 247 248 250 253 257 259 261 266 268 271 271 273 273 276 282 284 284 286 289 291 292 294 295 294 293 294 292 292 293 291 290 290 290 290 292 290 287 286
243 248 253 256 255 250 248 250 251 252 256 261 264 268 269 271 274 277 277 280 284 286 287 288 289 292 294 296 296 295 295 294 292 292 293 293 293 292 292 292 291 290 288 288
250 250 247 249 253 252 252 253 253 255 259 264 266 266 268 271 274 279 282 283 285 287 289 292 292 292 295 296 296 295 295 294 293 293 294 295 294 293 292 292 291 290 289 289
253 254 251 250 254 259 259 257 256 257 258 262 266 268 269 273 279 283 285 286 287 290 292 295 294 294 297 297 295 295 297 295 295 294 295 296 295 294 293 292 291 290 290 290
253 253 251 253 254 257 261 260 259 259 261 261 264 269 273 277 282 286 288 289 290 291 293 295 296 297 299 300 299 297 296 295 295 294 294 295 296 296 297 296 295 294 293 292
261 254 253 254 255 256 259 259 259 260 261 266 272 275 277 281 285 289 292 293 293 293 294 298 301 302 302 302 301 301 300 299 298 299 299 298 298 300 301 302 301 300 299 297
260 255 258 258 254 256 260 261 260 264 265 267 273 278 281 286 289 291 293 295 296 297 298 299 303 305 304 305 305 304 301 302 304 306 306 302 301 303 307 307 306 305 305 302
260 261 260 262 262 261 259 259 260 266 269 268 272 279 284 289 292 293 292 296 298 301 303 305 306 307 310 308 307 307 305 306 310 313 313 310 310 311 313 314 313 311 310 307
267 263 269 273 268 265 266 263 264 273 272 276 279 281 293 294 295 297 296 296 296 303 308 309 310 310 314 314 312 310 310 311 315 318 317 316 316 316 318 321 320 318 316 315
270 266 270 273 271 271 271 268 272 278 284 289 286 291 300 297 296 298 300 300 301 305 310 314 315 314 316 318 317 316 317 319 322 324 322 322 324 327 329 329 329 328 329 327
270 265 265 269 275 278 278 275 278 280 286 289 292 297 302 301 299 300 302 305 308 311 315 318 321 324 325 326 327 326 328 330 332 332 330 332 335 337 339 339 342 345 348 350
282 271 268 275 283 289 291 287 286 285 287 293 299 303 305 305 306 305 303 305 310 314 320 324 327 329 331 332 333 334 336 337 340 344 343 344 348 349 351 354 360 6 12 18
286 281 284 292 300 300 302 300 295 296 299 305 310 312 313 308 309 311 309 310 317 323 327 332 335 337 339 339 339 341 344 349 351 355 358 358 359 1 5 13 22 30 35 37
281 284 287 298 300 297 300 307 312 311 307 308 313 315 315 313 312 312 315 319 325 331 335 340 342 343 344 344 346 350 353 356 357 358 2 8 12 15 25 33 38 42 47 51
283 284 288 298 303 301 304 314 322 324 317 309 309 316 320 315 306 311 318 325 335 342 344 345 347 349 351 354 359 2 4 5 7 10 14 19 25 33 42 46 49 53 55 57
Height
5832 5836 5839 5841 5844 5847 5849 5852 5854 5854 5855 5857 5858 5859 5860 5861 5862 5862 5862 5862 5861 5861 5860 5860 5859 5859 5858 5858 5857 5856 5855 5854 5853 5852 5851 5850 5850 5849 5848 5847 5846 5845 5844 5843
5832 5835 5837 5839 5842 5844 5847 5850 5852 5852 5853 5855 5856 5856 5857 5858 5858 5858 5858 5858 5857 5857 5856 5856 5855 5855 5854 5853 5852 5851 5850 5849 5848 5847 5846 5846 5845 5843 5842 5841 5840 5839 5838 5837
5832 5834 5835 5838 5840 5843 5846 5848 5850 5851 5851 5852 5853 5854 5855 5855 5855 5855 5855 5855 5854 5854 5853 5852 5851 5850 5849 5849 5848 5846 5845 5844 5843 5842 5841 5839 5838 5837 5836 5835 5834 5833 5831 5831
5829 5831 5834 5836 5839 5841 5844 5845 5847 5848 5850 5851 5852 5853 5852 5851 5851 5851 5851 5851 5850 5849 5848 5848 5847 5846 5845 5844 5843 5841 5840 5839 5837 5836 5835 5833 5832 5831 5830 5829 5828 5826 5825 5824
5828 5830 5833 5835 5837 5839 5841 5843 5844 5846 5847 5849 5849 5850 5851 5848 5848 5847 5847 5847 5846 5845 5844 5843 5843 5842 5841 5840 5838 5837 5835 5833 5832 5830 5828 5827 5826 5825 5823 5822 5821 5819 5818 5816
5827 5829 5831 5833 5835 5837 5839 5841 5842 5843 5845 5846 5846 5847 5848 5845 5845 5844 5844 5843 5842 5841 5840 5839 5838 5837 5836 5835 5833 5832 5830 5828 5826 5824 5822 5821 5819 5818 5816 5815 5814 5812 5811 5809
5826 5828 5829 5831 5833 5835 5837 5840 5842 5843 5843 5844 5843 5843 5844 5842 5841 5840 5840 5839 5838 5837 5836 5835 5834 5833 5832 5830 5828 5826 5825 5822 5820 5818 5816 5814 5812 5811 5809 5808 5806 5804 5803 5801
5826 5827 5827 5828 5831 5832 5834 5837 5840 5842 5842 5842 5839 5839 5840 5838 5837 5837 5836 5836 5835 5834 5832 5831 5830 5828 5827 5825 5823 5821 5819 5817 5814 5812 5809 5807 5805 5803 5802 5800 5798 5796 5794 5793
5825 5825 5825 5826 5827 5829 5831 5832 5835 5836 5837 5837 5837 5835 5835 5834 5833 5833 5832 5832 5831 5830 5829 5827 5825 5824 5822 5820 5818 5815 5813 5811 5808 5805 5802 5800 5798 5796 5794 5792 5790 5788 5786 5785
5822 5823 5823 5823 5825 5826 5828 5829 5830 5832 5833 5833 5834 5832 5832 5830 5829 5829 5828 5828 5827 5826 5824 5822 5821 5819 5817 5815 5812 5810 5807 5804 5801 5798 5795 5793 5791 5789 5787 5785 5782 5780 5778 5777
5819 5821 5822 5822 5822 5823 5824 5825 5826 5828 5829 5830 5830 5831 5827 5826 5825 5825 5824 5823 5822 5821 5819 5818 5816 5814 5812 5810 5807 5804 5800 5797 5794 5791 5788 5786 5784 5782 5780 5778 5776 5773 5771 5769
5817 5818 5818 5819 5819 5820 5820 5821 5822 5824 5824 5824 5825 5827 5822 5821 5821 5820 5819 5818 5817 5816 5814 5813 5811 5809 5806 5804 5801 5797 5794 5791 5788 5785 5782 5780 5778 5776 5773 5771 5769 5767 5764 5762
5814 5815 5816 5816 5818 5817 5816 5817 5818 5819 5819 5819 5820 5822 5817 5817 5816 5815 5814 5813 5812 5811 5809 5808 5805 5803 5801 5798 5795 5791 5788 5785 5782 5779 5777 5774 5771 5769 5767 5764 5762 5760 5757 5756
5810 5811 5813 5814 5813 5812 5812 5813 5813 5814 5815 5815 5815 5815 5813 5812 5811 5811 5810 5808 5807 5806 5804 5802 5800 5797 5795 5792 5789 5786 5782 5779 5776 5774 5771 5768 5765 5762 5760 5757 5755 5753 5751 5749
5807 5807 5807 5808 5808 5808 5808 5808 5808 5809 5809 5810 5810 5809 5808 5808 5807 5806 5805 5804 5802 5800 5799 5797 5794 5792 5789 5786 5783 5780 5777 5774 5771 5768 5765 5762 5759 5757 5754 5751 5749 5746 5744 5742
5802 5803 5803 5804 5804 5804 5804 5804 5804 5804 5804 5804 5804 5804 5803 5803 5802 5801 5800 5798 5797 5795 5793 5791 5789 5786 5783 5781 5778 5774 5772 5769 5766 5763 5760 5757 5754 5751 5748 5746 5743 5740 5738 5736
5799 5799 5799 5800 5800 5800 5800 5801 5800 5800 5800 5800 5800 5800 5799 5799 5798 5797 5795 5793 5792 5790 5788 5786 5784 5781 5779 5776 5772 5769 5767 5764 5761 5758 5755 5752 5749 5746 5743 5741 5738 5736 5733 5732
5796 5796 5796 5797 5797 5797 5799 5797 5797 5797 5797 5796 5796 5796 5795 5795 5794 5792 5791 5789 5787 5786 5784 5782 5779 5777 5774 5771 5768 5765 5762 5760 5757 5754 5751 5748 5745 5742 5740 5737 5734 5732 5729 5727
5793 5793 5794 5794 5794 5794 5795 5794 5794 5794 5793 5793 5793 5792 5791 5790 5789 5788 5787 5785 5784 5782 5780 5778 5775 5773 5770 5767 5764 5761 5759 5757 5754 5751 5748 5745 5742 5739 5736 5733 5731 5728 5726 5724
5791 5791 5792 5792 5792 5792 5793 5792 5791 5792 5790 5790 5789 5789 5788 5787 5786 5785 5783 5782 5780 5779 5776 5774 5772 5769 5767 5764 5761 5759 5756 5754 5751 5748 5745 5742 5739 5737 5734 5731 5728 5725 5723 5721
5790 5789 5789 5789 5789 5789 5789 5789 5789 5790 5790 5788 5787 5786 5785 5784 5783 5782 5780 5778 5777 5775 5773 5771 5769 5766 5764 5761 5759 5756 5754 5751 5749 5746 5743 5740 5737 5735 5732 5729 5726 5724 5721 5719
5788 5788 5788 5787 5787 5789 5787 5786 5787 5787 5785 5785 5784 5783 5782 5781 5779 5778 5777 5776 5774 5772 5770 5768 5766 5764 5761 5759 5756 5754 5752 5749 5747 5744 5741 5738 5736 5733 5731 5728 5725 5722 5720 5718
5787 5787 5786 5786 5787 5785 5785 5784 5784 5784 5783 5782 5781 5780 5779 5778 5777 5775 5774 5773 5772 5770 5768 5766 5764 5762 5760 5757 5755 5753 5750 5748 5745 5743 5740 5737 5735 5732 5730 5727 5725 5722 5720 5718
5785 5785 5785 5784 5784 5783 5783 5782 5782 5781 5781 5780 5779 5778 5777 5776 5774 5773 5772 5771 5770 5768 5766 5764 5762 5760 5758 5756 5754 5752 5749 5747 5745 5742 5740 5737 5735 5732 5730 5727 5725 5723 5721 5719
5784 5784 5783 5783 5783 5782 5781 5781 5780 5779 5779 5778 5777 5775 5774 5773 5772 5771 5770 5769 5768 5766 5765 5763 5761 5759 5757 5755 5753 5751 5748 5746 5744 5742 5740 5737 5735 5733 5730 5728 5726 5724 5723 5721
5782 5783 5782 5782 5781 5781 5780 5779 5779 5778 5777 5776 5774 5773 5772 5771 5770 5769 5769 5768 5766 5765 5763 5762 5760 5758 5756 5754 5752 5750 5748 5746 5744 5742 5740 5738 5736 5734 5732 5730 5728 5727 5725 5724